Location: Newark
(45.5167°N, 11.1667°E)
Time: 03:48:39
(UTC+00:00)

Explorer 7 - Pass Details

Date: 17 December 2019
Orbit: 485 x 679 km, 50.3° (Epoch: 19 January)

Event Time Altitude Azimuth Distance (km) Brightness Sun altitude
Rises 17:05:01 0° 293° (WNW) 3,024 11.4 -15.4°
Reaches altitude 10° 17:07:24 10° 296° (WNW) 2,116 10.5 -15.8°
Maximum altitude 17:12:19 72° 20° (NNE) 716 7.2 -16.6°
Enters shadow 17:14:54 28° 100° (E) 1,271 8.1 -17.0°
Drops below altitude 10° 17:17:11 10° 106° (ESE) 2,094 - -17.4°
Sets 17:19:31 0° 108° (ESE) 2,989 - -17.8°
